Location: Karcze
(52.0945°N, 22.4786°E)
Time: 19:52:18
(UTC+00:00)

Transit 2A Rocket - Pass Details

Date: 06 August 2021
Orbit: 586 x 917 km, 66.7° (Epoch: 27 September)

Event Time Altitude Azimuth Distance (km) Brightness Sun altitude
Rises 15:29:23 0° 299° (WNW) 3,058 9.1 23.1°
Reaches altitude 10° 15:32:31 10° 321° (NW) 2,210 8.0 22.7°
Maximum altitude 15:35:40 16° 359° (N) 1,882 7.1 22.2°
Drops below altitude 10° 15:38:59 10° 38° (NE) 2,351 7.2 21.7°
Sets 15:42:29 0° 59° (ENE) 3,355 7.8 21.1°
